Weather History for Pascagoula, MS

Change the Weather History Date:

Saturday, August 3, 2013

  Actual Average Record
Temperature  
Mean Temperature 83 °F -  
Max Temperature 93 °F 89 °F 99 °F (1986)
Min Temperature 73 °F 72 °F 66 °F (1973)
Cooling Degree Days 18    
Growing Degree Days 33 (Base 50)    
Moisture  
Dew Point 75 °F    
Average Humidity 89    
Maximum Humidity 100    
Minimum Humidity 43    
Precipitation  
Precipitation 0.00 in - - ()
Sea Level Pressure  
Sea Level Pressure 30.02 in    
Wind  
Wind Speed 0 mph (WNW)    
Max Wind Speed 8 mph    
Max Gust Speed -    
Visibility 4 miles    
Events Fog    
Averages and records for this station are not official NWS values.
T = Trace of Precipitation, MM = Missing Value Source: NWS Daily Summary

Daily Weather History Graph

Daily Weather History Graph

Search for Another Location

Airport:

Trip Planner

Search our weather history database for the weather conditions in past years. The results will help you decide how hot, cold, wet, or windy it might be!

Date:

Astronomy

Aug. 03, 2013 Rise Set
Actual Time 6:13 AM CDT 7:46 PM CDT
Civil Twilight 5:47 AM CDT 8:12 PM CDT
Nautical Twilight 5:16 AM CDT 8:43 PM CDT
Astronomical Twilight 4:44 AM CDT 9:15 PM CDT
Moon 3:25 AM CDT (8/3) 5:26 PM CDT (8/3)
Length of Visible Light 14h 24m
Length of Day
13h 32m
Waning Crescent, 9% of the Moon is Illuminated
Aug 3
Waning Crescent
Aug 6
New
Aug 14
First Quarter
Aug 20
Full
Aug 28
Last Quarter

Hourly Weather History & Observations

Time (CDT) Temp. Heat Index Dew Point Humidity Pressure Visibility Wind Dir Wind Speed Gust Speed Precip Events Conditions
12:07 AM 77.0 °F - 75.2 °F 94% 30.03 in 1.5 mi Calm Calm - N/A   Clear
12:26 AM 75.2 °F - 75.2 °F 100% 30.03 in 3.0 mi Calm Calm - N/A   Clear
12:49 AM 75.2 °F - 75.2 °F 100% 30.02 in 1.5 mi Calm Calm - N/A   Clear
12:50 AM 75.2 °F - 75.2 °F 100% 30.02 in 1.2 mi Calm Calm - N/A   Partly Cloudy
12:53 AM 75.9 °F - 75.0 °F 97% 30.03 in 0.8 mi Calm Calm - N/A   Mist
1:05 AM 75.2 °F - 75.2 °F 100% 30.01 in 0.5 mi Calm Calm - N/A Fog Fog
1:14 AM 75.2 °F - 75.2 °F 100% 30.01 in 0.5 mi Calm Calm - N/A Fog Fog
1:19 AM 75.2 °F - 75.2 °F 100% 30.01 in 1.0 mi Calm Calm - N/A   Clear
1:27 AM 75.2 °F - 75.2 °F 100% 30.01 in 0.5 mi Calm Calm - N/A Fog Fog
1:34 AM 75.2 °F - 75.2 °F 100% 30.01 in 2.0 mi Calm Calm - N/A   Clear
1:49 AM 75.2 °F - 75.2 °F 100% 30.00 in 1.5 mi Calm Calm - N/A   Clear
1:53 AM 75.0 °F - 75.0 °F 100% 30.01 in 2.5 mi Calm Calm - N/A   Clear
2:00 AM 75.2 °F - 75.2 °F 100% 30.00 in 3.0 mi Calm Calm - N/A   Clear
2:53 AM 75.0 °F - 73.9 °F 96% 29.99 in 3.0 mi Calm Calm - N/A   Clear
3:00 AM 75.2 °F - 73.4 °F 94% 29.99 in 1.8 mi Calm Calm - N/A   Clear
3:12 AM 75.2 °F - 73.4 °F 94% 29.99 in 3.0 mi Calm Calm - N/A   Clear
3:22 AM 75.2 °F - 73.4 °F 94% 29.99 in 2.5 mi Calm Calm - N/A   Clear
3:33 AM 75.2 °F - 73.4 °F 94% 29.99 in 4.0 mi Calm Calm - N/A   Clear
3:53 AM 75.0 °F - 73.9 °F 96% 30.00 in 4.0 mi Calm Calm - N/A   Clear
4:09 AM 75.2 °F - 73.4 °F 94% 29.99 in 4.0 mi Calm Calm - N/A   Scattered Clouds
4:18 AM 75.2 °F - 73.4 °F 94% 29.99 in 3.0 mi Calm Calm - N/A   Mostly Cloudy
4:26 AM 75.2 °F - 73.4 °F 94% 29.99 in 1.5 mi Calm Calm - N/A   Mostly Cloudy
4:34 AM 75.2 °F - 73.4 °F 94% 29.99 in 0.5 mi Calm Calm - N/A Fog Fog
4:49 AM 73.4 °F - 73.4 °F 100% 29.99 in 0.5 mi Calm Calm - N/A Fog Fog
4:53 AM 75.0 °F - 73.9 °F 96% 30.00 in 0.5 mi Calm Calm - N/A Fog Fog
5:03 AM 73.4 °F - 73.4 °F 100% 30.00 in 0.2 mi Calm Calm - N/A Fog Fog
5:25 AM 75.2 °F - 73.4 °F 94% 30.00 in 0.5 mi Calm Calm - N/A Fog Fog
5:35 AM 73.4 °F - 73.4 °F 100% 30.00 in 0.2 mi Calm Calm - N/A Fog Fog
5:45 AM 73.4 °F - 73.4 °F 100% 30.00 in 0.8 mi Calm Calm - N/A   Mist
5:53 AM 73.9 °F - 73.9 °F 100% 30.01 in 0.2 mi Calm Calm - N/A Fog Fog
6:53 AM 73.9 °F - 73.9 °F 100% 30.02 in 0.5 mi Calm Calm - N/A Fog Fog
7:02 AM 75.2 °F - 75.2 °F 100% 30.02 in 1.2 mi Calm Calm - N/A   Mostly Cloudy
7:15 AM 75.2 °F - 75.2 °F 100% 30.02 in 2.0 mi Calm Calm - N/A   Scattered Clouds
7:27 AM 75.2 °F - 75.2 °F 100% 30.02 in 3.0 mi Calm Calm - N/A   Partly Cloudy
7:34 AM 75.2 °F - 75.2 °F 100% 30.02 in 2.5 mi Calm Calm - N/A   Partly Cloudy
7:41 AM 77.0 °F - 77.0 °F 100% 30.03 in 3.0 mi Calm Calm - N/A   Partly Cloudy
7:53 AM 78.1 °F - 77.0 °F 96% 30.04 in 5.0 mi Calm Calm - N/A   Partly Cloudy
8:53 AM 84.0 °F 96.0 °F 79.0 °F 85% 30.05 in 10.0 mi North 4.6 mph - N/A   Clear
9:53 AM 86.0 °F 96.9 °F 77.0 °F 74% 30.06 in 10.0 mi Calm Calm - N/A   Scattered Clouds
10:08 AM 87.8 °F 99.7 °F 77.0 °F 70% 30.06 in 10.0 mi Calm Calm - N/A   Mostly Cloudy
10:20 AM 87.8 °F 102.5 °F 78.8 °F 75% 30.06 in 10.0 mi WNW 4.6 mph - N/A   Scattered Clouds
10:53 AM 89.1 °F 100.2 °F 75.9 °F 65% 30.07 in 10.0 mi Variable 3.5 mph - N/A   Partly Cloudy
11:53 AM 90.0 °F 96.4 °F 71.1 °F 54% 30.07 in 10.0 mi Calm Calm - N/A   Clear
12:53 PM 93.0 °F 99.0 °F 70.0 °F 47% 30.06 in 10.0 mi NNE 5.8 mph - N/A   Partly Cloudy
1:53 PM 93.9 °F 98.6 °F 68.0 °F 43% 30.05 in 10.0 mi NNE 3.5 mph - N/A   Clear
2:53 PM 91.9 °F 101.3 °F 73.9 °F 55% 30.04 in 10.0 mi Variable 3.5 mph - N/A   Partly Cloudy
3:53 PM 93.0 °F 99.0 °F 70.0 °F 47% 30.01 in 10.0 mi North 8.1 mph - N/A   Clear
4:53 PM 91.9 °F 97.4 °F 70.0 °F 48% 30.01 in 10.0 mi West 3.5 mph - N/A   Clear
5:53 PM 88.0 °F 98.5 °F 75.9 °F 67% 30.01 in 10.0 mi SW 4.6 mph - N/A   Clear
6:53 PM 86.0 °F 96.0 °F 75.9 °F 72% 30.03 in 10.0 mi SW 3.5 mph - N/A   Clear
7:53 PM 84.0 °F 93.7 °F 77.0 °F 79% 30.04 in 10.0 mi South 3.5 mph - N/A   Clear
8:53 PM 82.0 °F 91.0 °F 78.1 °F 88% 30.05 in 10.0 mi Calm Calm - N/A   Clear
9:53 PM 81.0 °F 88.6 °F 78.1 °F 91% 30.06 in 9.0 mi Calm Calm - N/A   Clear
10:53 PM 80.1 °F 86.4 °F 78.1 °F 94% 30.07 in 8.0 mi Calm Calm - N/A   Clear
11:53 PM 79.0 °F - 78.1 °F 97% 30.06 in 6.0 mi Calm Calm - N/A   Clear